Погода в Коламбусе

США     32°28′13″N   84°59′35″W
темп.,
°C
ветер,
м/с
пор.,
м/с
влажн.,
%
обл.,
%
осадки,
мм/ч
давл.,
гПа
погр.,
м
4 июля, пн
пн423:00+26зсз257561 0.0 1018159
02:00+24з247890 0.0 1018109
05:00+23зсз128443 0.0 101853
08:00+25ссз127949 0.0 1019149
11:00+31с115640 0.0 1019802
14:00+34зсз214464 0.3 10181917
17:00+31всв1157100 0.1 1017291
20:00+30св126492 0.1 101775
5 июля, вт
вт523:00+28в0168100 0.0 101714
02:00+27ююв126988 0.0 101759
05:00+25юз117670 0.0 101742
08:00+26вюв007240 0.0 1018116
11:00+33ююз114976 0.0 1018939
14:00+38юв113659 0.1 10162471
17:00+33юз014896 0.1 1015498
20:00+30ссв126160 0.3 101592
6 июля, ср
ср623:00+27юз127251 0.6 101653
02:00+25юз11785 0.6 101626
05:00+24зсз11835 0.0 101622
08:00+26сз117857 0.0 1017117
11:00+33зюз225091 0.0 10171000
14:00+37зюз223475 0.0 10152865
17:00+37ю123395 0.0 10142360
20:00+32з245016 0.0 1013148
7 июля, чт
чт723:00+28сз24637 0.0 101590
02:00+26юз12725 0.2 101545
05:00+25зюз237872 0.0 101582
08:00+26зсз1377100 0.3 1017148
11:00+33зсз2353100 0.2 1017888
14:00+37з2238100 0.3 10162787
17:00+34зюз334699 0.1 1015914
20:00+27юз377766 1.6 1016183
8 июля, пт
пт823:00+25з248847 1.0 101689
02:00+24юз2493100 2.6 1017105
05:00+23юз259399 0.0 1016123
08:00+25зюз278976 0.0 1018222
11:00+33з355116 0.0 1018966
14:00+37з3435100 0.1 10162858
17:00+33з124921 0.0 1015262
20:00+33зсз375360 0.1 1015415